DLH6LK EDDM-ENGM

Flight info

Callsign DLH6LK
Flight time 1h 50m
Altitude 36000
Route INPUD3E INPUD Y102 UPALA M726 LASGA DCT EMBOX DCT BUMIL DCT GIMRU DCT SABAK L997 LUNIP
Aircraft A321/M-SDE2E3FGIJ1LORWXYZ/HB1

Departure

Time 2026-05-06 10:25
Airport Munich Airport (EDDM)

Arrival

Time 2026-05-06 12:15
Airport Oslo-Gardermoen International Airport (ENGM)
Time Latitude Longitude Altitude Speed Heading
2026-05-06 09:32 48.35620 11.79714 1485 ft 0 kts 83°
2026-05-06 10:09 48.35620 11.79713 1485 ft 0 kts 83°
2026-05-06 10:14 48.35620 11.79712 1485 ft 2 kts 83°
2026-05-06 10:14 48.35618 11.79689 1474 ft 0 kts 83°
2026-05-06 10:14 48.35617 11.79683 1482 ft 2 kts 83°
2026-05-06 10:15 48.35615 11.79658 1475 ft 2 kts 83°
2026-05-06 10:15 48.35614 11.79634 1476 ft 2 kts 84°
2026-05-06 10:15 48.35612 11.79610 1477 ft 2 kts 83°
2026-05-06 10:15 48.35610 11.79586 1482 ft 2 kts 72°
2026-05-06 10:16 48.35602 11.79565 1471 ft 2 kts
2026-05-06 10:16 48.35594 11.79564 1471 ft 0 kts 355°
2026-05-06 10:17 48.35595 11.79564 1471 ft 1 kts 355°
2026-05-06 10:17 48.35618 11.79561 1475 ft 6 kts 353°
2026-05-06 10:18 48.35658 11.79547 1481 ft 9 kts 339°
2026-05-06 10:18 48.35755 11.79429 1483 ft 24 kts 326°
2026-05-06 10:18 48.35911 11.79362 1477 ft 19 kts 337°
2026-05-06 10:18 48.35968 11.79338 1485 ft 7 kts 351°
2026-05-06 10:19 48.35980 11.79336 1476 ft 0 kts 353°
2026-05-06 10:20 48.35995 11.79333 1480 ft 7 kts 353°
2026-05-06 10:20 48.36079 11.79296 1471 ft 16 kts 312°
2026-05-06 10:20 48.36081 11.79160 1482 ft 13 kts 263°
2026-05-06 10:20 48.36070 11.79019 1485 ft 14 kts 262°
2026-05-06 10:21 48.36059 11.78868 1481 ft 15 kts 263°
2026-05-06 10:21 48.36046 11.78708 1480 ft 16 kts 263°
2026-05-06 10:21 48.36033 11.78531 1481 ft 19 kts 263°
2026-05-06 10:21 48.36016 11.78322 1480 ft 20 kts 264°
2026-05-06 10:22 48.36000 11.78106 1480 ft 21 kts 263°
2026-05-06 10:22 48.35983 11.77883 1481 ft 22 kts 263°
2026-05-06 10:22 48.35965 11.77654 1485 ft 22 kts 263°
2026-05-06 10:22 48.35948 11.77419 1481 ft 23 kts 264°
2026-05-06 10:23 48.35929 11.77180 1485 ft 20 kts 263°
2026-05-06 10:23 48.35970 11.77019 1476 ft 18 kts 313°
2026-05-06 10:23 48.36106 11.76959 1476 ft 25 kts 352°
2026-05-06 10:23 48.36277 11.76964 1475 ft 23 kts 43°
2026-05-06 10:24 48.36307 11.77169 1481 ft 20 kts 82°
2026-05-06 10:24 48.36328 11.77441 1485 ft 43 kts 83°
2026-05-06 10:24 48.36390 11.78249 1486 ft 111 kts 83°
2026-05-06 10:24 48.36502 11.79693 1483 ft 164 kts 83°
2026-05-06 10:25 48.36633 11.81520 1894 ft 179 kts 84°
2026-05-06 10:25 48.36777 11.83398 2609 ft 182 kts 83°
2026-05-06 10:25 48.36958 11.85332 3010 ft 198 kts 76°
2026-05-06 10:25 48.37635 11.87201 3144 ft 220 kts 43°
2026-05-06 10:26 48.39081 11.88090 3321 ft 239 kts
2026-05-06 10:26 48.40790 11.87859 3591 ft 255 kts 345°
2026-05-06 10:26 48.42310 11.86372 3973 ft 270 kts 308°
2026-05-06 10:26 48.43305 11.83971 4742 ft 271 kts 299°
2026-05-06 10:27 48.44310 11.81542 5406 ft 278 kts 307°
2026-05-06 10:27 48.45597 11.79350 6158 ft 279 kts 312°
2026-05-06 10:27 48.46912 11.77190 6841 ft 282 kts 312°
2026-05-06 10:27 48.48250 11.74987 6937 ft 285 kts 311°
2026-05-06 10:28 48.49573 11.72778 7514 ft 289 kts 310°
2026-05-06 10:28 48.50916 11.70516 8378 ft 290 kts 311°
2026-05-06 10:28 48.52281 11.68248 9098 ft 294 kts 310°
2026-05-06 10:28 48.53636 11.65928 9823 ft 296 kts 309°
2026-05-06 10:29 48.54997 11.63580 10555 ft 298 kts 308°
2026-05-06 10:29 48.56392 11.61234 11212 ft 303 kts 314°
2026-05-06 10:29 48.58076 11.59271 11808 ft 313 kts 327°
2026-05-06 10:29 48.60110 11.57870 11891 ft 338 kts 337°
2026-05-06 10:30 48.62365 11.56573 12029 ft 357 kts 338°
2026-05-06 10:30 48.64751 11.55217 12205 ft 374 kts 338°
2026-05-06 10:30 48.67217 11.53820 12633 ft 381 kts 338°
2026-05-06 10:30 48.69709 11.52397 13195 ft 385 kts 337°
2026-05-06 10:31 48.72225 11.50951 13784 ft 389 kts 337°
2026-05-06 10:31 48.74768 11.49483 14274 ft 392 kts 337°
2026-05-06 10:31 48.77326 11.48000 14777 ft 395 kts 337°
2026-05-06 10:31 48.79905 11.46502 15287 ft 398 kts 337°
2026-05-06 10:32 48.82500 11.44993 15805 ft 401 kts 337°
2026-05-06 10:32 48.85084 11.43490 16319 ft 404 kts 337°
2026-05-06 10:32 48.87713 11.41962 16822 ft 407 kts 337°
2026-05-06 10:32 48.90370 11.40415 17306 ft 410 kts 337°
2026-05-06 10:33 48.93038 11.38851 17776 ft 413 kts 337°
2026-05-06 10:33 48.95730 11.37269 18212 ft 416 kts 337°
2026-05-06 10:33 48.98435 11.35674 18617 ft 419 kts 337°
2026-05-06 10:33 49.01163 11.34073 19021 ft 421 kts 337°
2026-05-06 10:34 49.03904 11.32465 19418 ft 424 kts 337°
2026-05-06 10:34 49.06665 11.30844 19818 ft 426 kts 336°
2026-05-06 10:34 49.09437 11.29217 20227 ft 429 kts 336°
2026-05-06 10:34 49.12195 11.27596 20631 ft 431 kts 336°
2026-05-06 10:35 49.15001 11.25944 21038 ft 434 kts 336°
2026-05-06 10:35 49.17823 11.24278 21438 ft 436 kts 336°
2026-05-06 10:35 49.20727 11.22882 21821 ft 441 kts 345°
2026-05-06 10:35 49.23781 11.22208 22210 ft 446 kts 355°
2026-05-06 10:36 49.26896 11.22184 22591 ft 449 kts 359°
2026-05-06 10:36 49.30030 11.22229 22983 ft 452 kts 359°
2026-05-06 10:36 49.33180 11.22262 23365 ft 454 kts 358°
2026-05-06 10:36 49.36302 11.22286 23688 ft 456 kts 358°
2026-05-06 10:37 49.39481 11.22305 24018 ft 458 kts 358°
2026-05-06 10:37 49.42674 11.22322 24344 ft 460 kts 358°
2026-05-06 10:37 49.45884 11.22339 24666 ft 462 kts 358°
2026-05-06 10:37 49.49101 11.22363 24977 ft 464 kts 358°
2026-05-06 10:38 49.52332 11.22391 25302 ft 466 kts 358°
2026-05-06 10:38 49.55580 11.22423 25619 ft 468 kts 358°
2026-05-06 10:38 49.58842 11.22446 25932 ft 470 kts 358°
2026-05-06 10:38 49.62074 11.22452 26237 ft 472 kts 358°
2026-05-06 10:39 49.65362 11.22451 26551 ft 474 kts 357°
2026-05-06 10:39 49.68668 11.22449 26855 ft 476 kts 357°
2026-05-06 10:39 49.71989 11.22447 27143 ft 478 kts 357°
2026-05-06 10:39 49.75321 11.22447 27410 ft 480 kts 357°
2026-05-06 10:40 49.78666 11.22454 27690 ft 482 kts 358°
2026-05-06 10:40 49.82024 11.22474 27953 ft 484 kts 358°
2026-05-06 10:40 49.85397 11.22501 28197 ft 486 kts 358°
2026-05-06 10:40 49.88734 11.22527 28427 ft 487 kts 358°
2026-05-06 10:41 49.92129 11.22551 28664 ft 489 kts 357°
2026-05-06 10:41 49.95530 11.22574 28988 ft 488 kts 357°
2026-05-06 10:41 49.98922 11.22593 29316 ft 487 kts 357°
2026-05-06 10:41 50.02312 11.22611 29643 ft 487 kts 357°
2026-05-06 10:42 50.05693 11.22628 29958 ft 486 kts 357°
2026-05-06 10:42 50.09074 11.22643 30236 ft 486 kts 357°
2026-05-06 10:42 50.12452 11.22661 30497 ft 485 kts 357°
2026-05-06 10:42 50.15826 11.22683 30775 ft 484 kts 357°
2026-05-06 10:43 50.19193 11.22704 31065 ft 483 kts 356°
2026-05-06 10:43 50.22503 11.22722 31344 ft 482 kts 356°
2026-05-06 10:43 50.25854 11.22745 31618 ft 482 kts 356°
2026-05-06 10:44 50.32556 11.22794 32081 ft 482 kts 356°
2026-05-06 10:44 50.35910 11.22811 32215 ft 485 kts 356°
2026-05-06 10:44 50.39297 11.22889 32350 ft 487 kts 358°
2026-05-06 10:44 50.42434 11.23063 32467 ft 489 kts 359°
2026-05-06 10:45 50.45836 11.23331 32603 ft 491 kts 359°
2026-05-06 10:45 50.49260 11.23640 32727 ft 493 kts 360°
2026-05-06 10:45 50.52684 11.23945 32888 ft 494 kts 359°
2026-05-06 10:45 50.56112 11.24229 33082 ft 493 kts 359°
2026-05-06 10:46 50.59535 11.24485 33301 ft 492 kts 359°
2026-05-06 10:46 50.62957 11.24722 33523 ft 492 kts 358°
2026-05-06 10:46 50.66330 11.24941 33725 ft 491 kts 358°
2026-05-06 10:46 50.69735 11.25163 33901 ft 490 kts 358°
2026-05-06 10:47 50.73196 11.25393 34086 ft 490 kts 358°
2026-05-06 10:47 50.76552 11.25623 34246 ft 490 kts 358°
2026-05-06 10:47 50.79957 11.25862 34412 ft 489 kts 358°
2026-05-06 10:47 50.83357 11.26102 34565 ft 489 kts 358°
2026-05-06 10:48 50.86760 11.26343 34730 ft 489 kts 358°
2026-05-06 10:48 50.90154 11.26587 34888 ft 489 kts 358°
2026-05-06 10:48 50.93548 11.26829 35059 ft 488 kts 358°
2026-05-06 10:48 50.96942 11.27070 35216 ft 488 kts 358°
2026-05-06 10:49 51.00288 11.27306 35378 ft 487 kts 358°
2026-05-06 10:49 51.03675 11.27547 35542 ft 487 kts 358°
2026-05-06 10:49 51.07057 11.27786 35711 ft 487 kts 358°
2026-05-06 10:50 51.13831 11.28263 35773 ft 487 kts 358°
2026-05-06 10:50 51.20515 11.28745 35776 ft 475 kts 358°
2026-05-06 10:51 51.27102 11.29217 35776 ft 473 kts 358°
2026-05-06 10:51 51.33671 11.29688 35779 ft 472 kts 358°
2026-05-06 10:52 51.40239 11.30169 35786 ft 472 kts 358°
2026-05-06 10:52 51.46759 11.30641 35790 ft 473 kts 358°
2026-05-06 10:53 51.53334 11.31113 35807 ft 473 kts 358°
2026-05-06 10:53 51.59925 11.31590 35824 ft 474 kts 358°
2026-05-06 10:54 51.66513 11.32078 35831 ft 474 kts 358°
2026-05-06 10:54 51.73108 11.32553 35835 ft 474 kts 358°
2026-05-06 10:55 51.79652 11.33027 35840 ft 474 kts 358°
2026-05-06 10:55 51.86231 11.33514 35842 ft 474 kts 358°
2026-05-06 10:56 51.92859 11.34006 35842 ft 473 kts 358°
2026-05-06 10:56 51.99389 11.34488 35842 ft 473 kts 358°
2026-05-06 10:57 52.05959 11.34959 35838 ft 472 kts 356°
2026-05-06 10:57 52.12502 11.34875 35843 ft 469 kts 352°
2026-05-06 10:58 52.19002 11.34314 35844 ft 467 kts 352°
2026-05-06 10:58 52.25498 11.33779 35849 ft 467 kts 353°
2026-05-06 10:59 52.31992 11.33392 35847 ft 467 kts 353°
2026-05-06 10:59 52.38475 11.33040 35853 ft 466 kts 353°
2026-05-06 11:00 52.44950 11.32664 35852 ft 465 kts 353°
2026-05-06 11:00 52.51409 11.32276 35859 ft 464 kts 353°
2026-05-06 11:01 52.57868 11.31892 35854 ft 464 kts 353°
2026-05-06 11:01 52.64313 11.31508 35858 ft 464 kts 353°
2026-05-06 11:02 52.70760 11.31113 35858 ft 463 kts 352°
2026-05-06 11:02 52.77210 11.30727 35866 ft 464 kts 352°
2026-05-06 11:03 52.83618 11.30343 35857 ft 465 kts 352°
2026-05-06 11:03 52.90082 11.29944 35864 ft 465 kts 352°
2026-05-06 11:04 52.96544 11.29543 35875 ft 465 kts 352°
2026-05-06 11:04 53.03017 11.29151 35869 ft 465 kts 352°
2026-05-06 11:05 53.09487 11.28758 35882 ft 465 kts 353°
2026-05-06 11:05 53.15924 11.28501 35875 ft 467 kts 355°
2026-05-06 11:06 53.22441 11.28665 35879 ft 468 kts 356°
2026-05-06 11:06 53.28950 11.28925 35878 ft 468 kts 356°
2026-05-06 11:07 53.35454 11.29098 35887 ft 467 kts 356°
2026-05-06 11:07 53.41959 11.29195 35887 ft 467 kts 355°
2026-05-06 11:08 53.48456 11.29283 35892 ft 467 kts 356°
2026-05-06 11:08 53.54964 11.29398 35895 ft 467 kts 356°
2026-05-06 11:09 53.61418 11.29535 35893 ft 467 kts 356°
2026-05-06 11:09 53.67918 11.29669 35899 ft 467 kts 356°
2026-05-06 11:10 53.74408 11.29780 35902 ft 467 kts 356°
2026-05-06 11:10 53.80904 11.29900 35907 ft 467 kts 356°
2026-05-06 11:11 53.87400 11.30030 35911 ft 467 kts 356°
2026-05-06 11:11 53.93892 11.30158 35912 ft 467 kts 356°
2026-05-06 11:12 54.00383 11.30281 35915 ft 466 kts 356°
2026-05-06 11:12 54.06869 11.30405 35918 ft 466 kts 356°
2026-05-06 11:13 54.13320 11.30528 35921 ft 467 kts 356°
2026-05-06 11:13 54.19812 11.30643 35924 ft 467 kts 356°
2026-05-06 11:14 54.26309 11.30765 35924 ft 467 kts 356°
2026-05-06 11:14 54.32801 11.30898 35924 ft 467 kts 357°
2026-05-06 11:15 54.39307 11.31033 35929 ft 467 kts 357°
2026-05-06 11:15 54.45768 11.31165 35931 ft 467 kts 357°
2026-05-06 11:16 54.52271 11.31289 35933 ft 467 kts 357°
2026-05-06 11:16 54.58776 11.31463 35931 ft 468 kts 358°
2026-05-06 11:17 54.64192 11.31889 35936 ft 469 kts 360°
2026-05-06 11:17 54.70698 11.32558 35936 ft 469 kts
2026-05-06 11:18 54.78261 11.33255 35939 ft 468 kts 359°
2026-05-06 11:18 54.83713 11.33695 35939 ft 468 kts 359°
2026-05-06 11:19 54.90170 11.34212 35941 ft 468 kts 359°
2026-05-06 11:19 54.96666 11.34748 35942 ft 467 kts 360°
2026-05-06 11:20 55.04261 11.35407 35949 ft 467 kts 360°
2026-05-06 11:20 55.09655 11.35870 35944 ft 467 kts 360°
2026-05-06 11:21 55.16149 11.36413 35950 ft 467 kts 359°
2026-05-06 11:21 55.22590 11.36957 35951 ft 467 kts 360°
2026-05-06 11:22 55.29076 11.37521 35951 ft 467 kts 360°
2026-05-06 11:22 55.35565 11.38090 35948 ft 467 kts 359°
2026-05-06 11:23 55.42011 11.38641 35953 ft 467 kts 359°
2026-05-06 11:23 55.48495 11.39198 35954 ft 467 kts 359°
2026-05-06 11:24 55.54985 11.39767 35959 ft 467 kts 359°
2026-05-06 11:24 55.61479 11.40343 35961 ft 467 kts 359°
2026-05-06 11:25 55.67931 11.40900 35963 ft 467 kts 359°
2026-05-06 11:25 55.74426 11.41468 35968 ft 468 kts 359°
2026-05-06 11:26 55.80948 11.42030 35937 ft 474 kts
2026-05-06 11:26 55.87590 11.42611 35945 ft 480 kts
2026-05-06 11:27 55.94234 11.43200 35948 ft 481 kts 360°
2026-05-06 11:27 56.00924 11.43792 35950 ft 482 kts 360°
2026-05-06 11:28 56.07624 11.44397 35957 ft 482 kts 359°
2026-05-06 11:28 56.14333 11.45011 35965 ft 483 kts 359°
2026-05-06 11:29 56.21053 11.45618 35975 ft 484 kts 359°
2026-05-06 11:29 56.27734 11.46218 35979 ft 484 kts 359°
2026-05-06 11:30 56.34460 11.46817 35978 ft 484 kts 359°
2026-05-06 11:30 56.41183 11.47423 35984 ft 484 kts 359°
2026-05-06 11:31 56.47865 11.48037 35985 ft 484 kts 359°
2026-05-06 11:31 56.54590 11.48667 35987 ft 484 kts 359°
2026-05-06 11:32 56.61322 11.49282 35992 ft 484 kts 359°
2026-05-06 11:32 56.68057 11.49897 35997 ft 485 kts 359°
2026-05-06 11:33 56.74745 11.50522 35997 ft 485 kts 358°
2026-05-06 11:33 56.81484 11.51143 36000 ft 485 kts 358°
2026-05-06 11:34 56.88216 11.51765 35997 ft 485 kts 358°
2026-05-06 11:34 56.94950 11.52386 36001 ft 484 kts 358°
2026-05-06 11:35 57.01640 11.53017 36004 ft 484 kts 358°
2026-05-06 11:35 57.08369 11.53647 36004 ft 484 kts 358°
2026-05-06 11:36 57.15102 11.54281 36001 ft 484 kts 358°
2026-05-06 11:36 57.21829 11.54929 35999 ft 484 kts 358°
2026-05-06 11:37 57.28567 11.55581 36004 ft 484 kts 358°
2026-05-06 11:37 57.35250 11.56214 36010 ft 484 kts 358°
2026-05-06 11:38 57.41981 11.56840 36001 ft 484 kts 358°
2026-05-06 11:38 57.48714 11.57477 36013 ft 485 kts 358°
2026-05-06 11:39 57.55451 11.58151 36012 ft 485 kts 358°
2026-05-06 11:39 57.62187 11.58822 36012 ft 485 kts 358°
2026-05-06 11:40 57.68921 11.59473 36008 ft 485 kts 357°
2026-05-06 11:40 57.75607 11.60110 36009 ft 485 kts 357°
2026-05-06 11:41 57.82344 11.60765 36009 ft 485 kts 357°
2026-05-06 11:41 57.89084 11.61436 36011 ft 485 kts 357°
2026-05-06 11:42 57.95811 11.62113 36010 ft 485 kts 357°
2026-05-06 11:42 58.02505 11.62757 36012 ft 485 kts 357°
2026-05-06 11:43 58.09238 11.63431 36011 ft 484 kts 357°
2026-05-06 11:43 58.15970 11.64086 36013 ft 483 kts 354°
2026-05-06 11:44 58.22544 11.62798 36011 ft 472 kts 344°
2026-05-06 11:44 58.25747 11.61793 36016 ft 473 kts 344°
2026-05-06 11:44 58.32236 11.59781 36015 ft 473 kts 344°
2026-05-06 11:45 58.38725 11.57773 36021 ft 473 kts 344°
2026-05-06 11:45 58.45220 11.55761 36018 ft 472 kts 344°
2026-05-06 11:46 58.48453 11.54758 35661 ft 470 kts 343°
2026-05-06 11:46 58.51634 11.53775 35021 ft 470 kts 343°
2026-05-06 11:46 58.54864 11.52782 34367 ft 470 kts 343°
2026-05-06 11:46 58.58099 11.51782 33662 ft 471 kts 343°
2026-05-06 11:47 58.61334 11.50763 32873 ft 472 kts 342°
2026-05-06 11:47 58.64571 11.49732 32366 ft 473 kts 342°
2026-05-06 11:47 58.67821 11.48697 31886 ft 474 kts 342°
2026-05-06 11:47 58.71083 11.47661 31440 ft 476 kts 342°
2026-05-06 11:48 58.74349 11.46624 30984 ft 476 kts 342°
2026-05-06 11:48 58.77621 11.45594 30539 ft 477 kts 342°
2026-05-06 11:48 58.80903 11.44561 30103 ft 478 kts 342°
2026-05-06 11:48 58.84185 11.43522 29592 ft 478 kts 342°
2026-05-06 11:49 58.87459 11.42483 29099 ft 478 kts 342°
2026-05-06 11:49 58.90682 11.41456 28578 ft 474 kts 342°
2026-05-06 11:49 58.93929 11.40418 28099 ft 470 kts 342°
2026-05-06 11:49 58.97142 11.39392 27611 ft 466 kts 342°
2026-05-06 11:50 59.00328 11.38375 27138 ft 462 kts 342°
2026-05-06 11:50 59.03481 11.37365 26669 ft 458 kts 342°
2026-05-06 11:50 59.06604 11.36358 26210 ft 451 kts 342°
2026-05-06 11:50 59.09666 11.35372 25763 ft 442 kts 342°
2026-05-06 11:51 59.12664 11.34336 25315 ft 432 kts 340°
2026-05-06 11:51 59.15543 11.33210 24897 ft 426 kts 342°
2026-05-06 11:51 59.18510 11.32746 24464 ft 430 kts 353°
2026-05-06 11:51 59.21492 11.33483 24033 ft 436 kts
2026-05-06 11:52 59.24389 11.35215 23610 ft 433 kts 11°
2026-05-06 11:52 59.27237 11.37029 23105 ft 428 kts 11°
2026-05-06 11:52 59.30007 11.38826 22587 ft 409 kts 11°
2026-05-06 11:52 59.32631 11.40539 22079 ft 388 kts 11°
2026-05-06 11:53 59.35151 11.42167 21598 ft 377 kts 11°
2026-05-06 11:53 59.37624 11.43733 21119 ft 371 kts 10°
2026-05-06 11:53 59.40082 11.45274 20734 ft 369 kts 10°
2026-05-06 11:53 59.42516 11.46801 20341 ft 365 kts 10°
2026-05-06 11:54 59.44922 11.48309 19959 ft 361 kts 10°
2026-05-06 11:54 59.47271 11.49778 19590 ft 358 kts 10°
2026-05-06 11:54 59.49633 11.51261 19219 ft 355 kts 10°
2026-05-06 11:54 59.51973 11.52742 18837 ft 352 kts 11°
2026-05-06 11:55 59.54293 11.54216 18478 ft 349 kts 11°
2026-05-06 11:55 59.56594 11.55677 18102 ft 346 kts 11°
2026-05-06 11:55 59.58874 11.57123 17687 ft 343 kts 11°
2026-05-06 11:55 59.61135 11.58559 17274 ft 340 kts 11°
2026-05-06 11:56 59.63372 11.59984 16866 ft 337 kts 11°
2026-05-06 11:56 59.65565 11.61383 16470 ft 334 kts 11°
2026-05-06 11:56 59.67767 11.62789 16074 ft 331 kts 11°
2026-05-06 11:56 59.69950 11.64184 15681 ft 329 kts 11°
2026-05-06 11:57 59.72117 11.65571 15297 ft 326 kts 12°
2026-05-06 11:57 59.74265 11.66948 14911 ft 323 kts 12°
2026-05-06 11:57 59.76395 11.68314 14536 ft 321 kts 12°
2026-05-06 11:57 59.78511 11.69674 14158 ft 318 kts 12°
2026-05-06 11:58 59.80608 11.71025 13792 ft 316 kts 12°
2026-05-06 11:58 59.82688 11.72368 13377 ft 313 kts 13°
2026-05-06 11:58 59.84758 11.73703 12967 ft 312 kts 13°
2026-05-06 11:58 59.86786 11.75013 12570 ft 310 kts 13°
2026-05-06 11:59 59.88827 11.76339 12166 ft 307 kts 13°
2026-05-06 11:59 59.90850 11.77653 11754 ft 305 kts 14°
2026-05-06 11:59 59.92867 11.78959 11355 ft 304 kts 14°
2026-05-06 11:59 59.94872 11.80259 10958 ft 302 kts 14°
2026-05-06 12:00 59.96865 11.81557 10576 ft 301 kts 15°
2026-05-06 12:00 59.98850 11.82855 10208 ft 299 kts 15°
2026-05-06 12:00 60.00825 11.84149 9805 ft 298 kts 15°
2026-05-06 12:00 60.02765 11.85421 9430 ft 296 kts 15°
2026-05-06 12:01 60.04713 11.86701 9043 ft 294 kts 15°
2026-05-06 12:01 60.06639 11.87973 8935 ft 291 kts 16°
2026-05-06 12:01 60.08572 11.89248 8930 ft 293 kts 16°
2026-05-06 12:01 60.10507 11.90515 8939 ft 292 kts 15°
2026-05-06 12:02 60.12488 11.91336 8942 ft 290 kts
2026-05-06 12:02 60.14486 11.91916 8939 ft 290 kts
2026-05-06 12:02 60.16461 11.92501 8936 ft 280 kts
2026-05-06 12:02 60.18318 11.93063 8925 ft 266 kts
2026-05-06 12:03 60.20100 11.93606 8937 ft 254 kts
2026-05-06 12:03 60.21842 11.94138 8961 ft 253 kts
2026-05-06 12:03 60.23578 11.94608 8932 ft 250 kts 359°
2026-05-06 12:03 60.25259 11.94046 8944 ft 243 kts 333°
2026-05-06 12:04 60.26625 11.92163 8948 ft 237 kts 309°
2026-05-06 12:04 60.27538 11.89445 8938 ft 234 kts 298°
2026-05-06 12:04 60.28376 11.86636 8944 ft 234 kts 298°
2026-05-06 12:04 60.29205 11.83858 8936 ft 235 kts 298°
2026-05-06 12:05 60.30085 11.81084 8939 ft 236 kts 307°
2026-05-06 12:05 60.31378 11.79000 8941 ft 240 kts 324°
2026-05-06 12:05 60.32795 11.77215 8930 ft 241 kts 325°
2026-05-06 12:05 60.34224 11.75454 8936 ft 241 kts 326°
2026-05-06 12:06 60.35652 11.73693 8939 ft 241 kts 326°
2026-05-06 12:06 60.37079 11.71927 8939 ft 240 kts 326°
2026-05-06 12:06 60.38485 11.70179 8933 ft 240 kts 326°
2026-05-06 12:06 60.39905 11.68410 8938 ft 240 kts 326°
2026-05-06 12:07 60.41323 11.66643 8936 ft 240 kts 325°
2026-05-06 12:07 60.42737 11.64823 8941 ft 242 kts 320°
2026-05-06 12:07 60.43805 11.62318 8652 ft 231 kts 295°
2026-05-06 12:07 60.44191 11.59220 7966 ft 228 kts 268°
2026-05-06 12:08 60.43925 11.56079 7291 ft 226 kts 256°
2026-05-06 12:08 60.43561 11.52977 6651 ft 226 kts 257°
2026-05-06 12:08 60.43208 11.49882 6066 ft 225 kts 257°
2026-05-06 12:08 60.42866 11.46853 5438 ft 222 kts 257°
2026-05-06 12:09 60.42526 11.43826 5045 ft 219 kts 257°
2026-05-06 12:09 60.42185 11.40805 4980 ft 214 kts 257°
2026-05-06 12:09 60.41909 11.37935 5002 ft 206 kts 260°
2026-05-06 12:09 60.41688 11.35090 4995 ft 204 kts 262°
2026-05-06 12:10 60.41482 11.32256 4999 ft 204 kts 262°
2026-05-06 12:10 60.41276 11.29415 5002 ft 203 kts 262°
2026-05-06 12:10 60.41069 11.26586 5005 ft 204 kts 262°
2026-05-06 12:10 60.40811 11.23805 4934 ft 204 kts 252°
2026-05-06 12:11 60.40148 11.21315 4637 ft 202 kts 231°
2026-05-06 12:11 60.39069 11.19500 4323 ft 205 kts 210°
2026-05-06 12:11 60.37744 11.18545 4039 ft 196 kts 198°
2026-05-06 12:11 60.36451 11.17792 3951 ft 191 kts 198°
2026-05-06 12:12 60.35159 11.17038 3609 ft 195 kts 198°
2026-05-06 12:12 60.33880 11.16294 3310 ft 187 kts 198°
2026-05-06 12:12 60.32639 11.15570 3044 ft 184 kts 198°
2026-05-06 12:12 60.31403 11.14851 2803 ft 185 kts 198°
2026-05-06 12:13 60.30187 11.14153 2534 ft 183 kts 199°
2026-05-06 12:13 60.28998 11.13459 2290 ft 175 kts 199°
2026-05-06 12:13 60.27843 11.12785 2038 ft 168 kts 198°
2026-05-06 12:13 60.26753 11.12152 1828 ft 156 kts 197°
2026-05-06 12:14 60.25749 11.11569 1606 ft 148 kts 198°
2026-05-06 12:14 60.24782 11.11008 1389 ft 144 kts 197°
2026-05-06 12:14 60.23828 11.10455 1185 ft 142 kts 197°
2026-05-06 12:14 60.22882 11.09907 990 ft 141 kts 197°
2026-05-06 12:15 60.21958 11.09367 782 ft 140 kts 196°
2026-05-06 12:15 60.21047 11.08832 681 ft 119 kts 194°
2026-05-06 12:15 60.20542 11.08551 678 ft 31 kts 195°
2026-05-06 12:15 60.20355 11.08451 677 ft 28 kts 187°
2026-05-06 12:16 60.20235 11.08680 676 ft 24 kts 121°
2026-05-06 12:16 60.20113 11.08691 680 ft 19 kts 191°
2026-05-06 12:16 60.20072 11.08675 680 ft 0 kts 191°
2026-05-06 12:17 60.20058 11.08667 678 ft 6 kts 196°
2026-05-06 12:17 60.19989 11.08627 679 ft 15 kts 196°
2026-05-06 12:17 60.19882 11.08613 678 ft 17 kts 142°
2026-05-06 12:17 60.19787 11.08734 678 ft 17 kts 129°
2026-05-06 12:18 60.19745 11.08956 682 ft 16 kts 106°
2026-05-06 12:18 60.19708 11.09211 682 ft 24 kts 106°
2026-05-06 12:18 60.19658 11.09548 683 ft 26 kts 111°
2026-05-06 12:18 60.19605 11.09841 679 ft 11 kts 106°
2026-05-06 12:19 60.19594 11.09917 685 ft 0 kts 106°